AAL2017 KLAX-KPHX

Flight info

Callsign AAL2017
Flight time 1h 4m
Altitude 37000
Route DOTSS2 CNERY BLH HYDRR1
Aircraft A319/M-SDE3FGHIRWY/LB1

Departure

Time 2026-04-21 05:25
Airport Los Angeles International Airport (KLAX)

Arrival

Time 2026-04-21 06:29
Airport Phoenix Sky Harbor International Airport (KPHX)
Time Latitude Longitude Altitude Speed Heading
2026-04-21 04:55 33.94167 -118.40402 128 ft 0 kts 263°
2026-04-21 05:16 33.94168 -118.40391 128 ft 2 kts 273°
2026-04-21 05:16 33.94169 -118.40373 128 ft 2 kts 261°
2026-04-21 05:17 33.94170 -118.40362 128 ft 1 kts 265°
2026-04-21 05:17 33.94175 -118.40346 128 ft 2 kts 221°
2026-04-21 05:17 33.94188 -118.40339 128 ft 1 kts 183°
2026-04-21 05:17 33.94195 -118.40339 127 ft 1 kts 166°
2026-04-21 05:18 33.94199 -118.40340 127 ft 0 kts 172°
2026-04-21 05:19 33.94191 -118.40339 127 ft 2 kts 172°
2026-04-21 05:20 33.94167 -118.40334 128 ft 3 kts 171°
2026-04-21 05:20 33.94140 -118.40331 128 ft 4 kts 173°
2026-04-21 05:20 33.94105 -118.40325 128 ft 5 kts 176°
2026-04-21 05:20 33.94054 -118.40318 128 ft 8 kts 172°
2026-04-21 05:21 33.93978 -118.40309 127 ft 13 kts 174°
2026-04-21 05:21 33.93913 -118.40246 126 ft 14 kts 134°
2026-04-21 05:21 33.93864 -118.40154 123 ft 16 kts 88°
2026-04-21 05:21 33.93877 -118.40015 120 ft 19 kts 83°
2026-04-21 05:22 33.93893 -118.39864 118 ft 20 kts 83°
2026-04-21 05:22 33.93939 -118.39422 112 ft 26 kts 84°
2026-04-21 05:22 33.93961 -118.39198 110 ft 27 kts 83°
2026-04-21 05:23 33.93985 -118.38981 109 ft 27 kts 84°
2026-04-21 05:23 33.94004 -118.38765 108 ft 26 kts 83°
2026-04-21 05:23 33.94028 -118.38547 106 ft 26 kts 84°
2026-04-21 05:23 33.94049 -118.38329 104 ft 26 kts 83°
2026-04-21 05:24 33.94076 -118.38126 103 ft 18 kts 82°
2026-04-21 05:24 33.94060 -118.38031 102 ft 12 kts 147°
2026-04-21 05:24 33.93985 -118.38046 102 ft 13 kts 245°
2026-04-21 05:24 33.93971 -118.38152 103 ft 19 kts 263°
2026-04-21 05:25 33.93919 -118.38657 108 ft 97 kts 262°
2026-04-21 05:25 33.93817 -118.39645 120 ft 154 kts 265°
2026-04-21 05:25 33.93706 -118.40932 761 ft 155 kts 264°
2026-04-21 05:25 33.93578 -118.42247 1383 ft 166 kts 262°
2026-04-21 05:26 33.93390 -118.43645 2051 ft 175 kts 260°
2026-04-21 05:26 33.93131 -118.45129 2577 ft 190 kts 253°
2026-04-21 05:26 33.92408 -118.46513 3078 ft 207 kts 220°
2026-04-21 05:26 33.91040 -118.47195 3560 ft 227 kts 189°
2026-04-21 05:27 33.89413 -118.47351 4091 ft 247 kts 183°
2026-04-21 05:27 33.87618 -118.47405 4752 ft 262 kts 182°
2026-04-21 05:27 33.85815 -118.47516 5660 ft 266 kts 189°
2026-04-21 05:27 33.84002 -118.47976 6677 ft 266 kts 194°
2026-04-21 05:28 33.82228 -118.48514 7624 ft 268 kts 194°
2026-04-21 05:28 33.80435 -118.49040 8545 ft 270 kts 194°
2026-04-21 05:28 33.78606 -118.49548 9460 ft 272 kts 193°
2026-04-21 05:28 33.76759 -118.50043 10346 ft 275 kts 193°
2026-04-21 05:29 33.74849 -118.50547 10947 ft 289 kts 192°
2026-04-21 05:29 33.72783 -118.50732 11416 ft 308 kts 175°
2026-04-21 05:29 33.70703 -118.49959 12161 ft 319 kts 155°
2026-04-21 05:29 33.68976 -118.48289 12994 ft 329 kts 134°
2026-04-21 05:30 33.67853 -118.45892 13771 ft 340 kts 115°
2026-04-21 05:30 33.67053 -118.43179 14544 ft 344 kts 114°
2026-04-21 05:30 33.66272 -118.40491 15249 ft 348 kts 114°
2026-04-21 05:30 33.65463 -118.37726 15941 ft 353 kts 114°
2026-04-21 05:31 33.64798 -118.34885 16615 ft 360 kts 106°
2026-04-21 05:31 33.64461 -118.31915 17291 ft 367 kts 98°
2026-04-21 05:31 33.64403 -118.28848 17947 ft 372 kts 94°
2026-04-21 05:31 33.64414 -118.25729 18613 ft 376 kts 94°
2026-04-21 05:32 33.64435 -118.22594 19259 ft 379 kts 94°
2026-04-21 05:32 33.64449 -118.19417 19896 ft 382 kts 94°
2026-04-21 05:32 33.64458 -118.16202 20524 ft 385 kts 94°
2026-04-21 05:32 33.64462 -118.13019 21141 ft 388 kts 94°
2026-04-21 05:33 33.64462 -118.09760 21741 ft 391 kts 94°
2026-04-21 05:33 33.64460 -118.06512 22307 ft 394 kts 94°
2026-04-21 05:33 33.64457 -118.03206 22877 ft 397 kts 94°
2026-04-21 05:33 33.64455 -117.99877 23433 ft 401 kts 94°
2026-04-21 05:34 33.64449 -117.96538 23952 ft 404 kts 94°
2026-04-21 05:34 33.64443 -117.93147 24450 ft 408 kts 94°
2026-04-21 05:34 33.64436 -117.89741 24948 ft 411 kts 93°
2026-04-21 05:34 33.64428 -117.86337 25426 ft 415 kts 93°
2026-04-21 05:35 33.64391 -117.82868 25897 ft 417 kts 96°
2026-04-21 05:35 33.64112 -117.79391 26354 ft 418 kts 102°
2026-04-21 05:35 33.63544 -117.75987 26794 ft 419 kts 107°
2026-04-21 05:35 33.62757 -117.72629 27225 ft 421 kts 109°
2026-04-21 05:36 33.61924 -117.69289 27622 ft 424 kts 110°
2026-04-21 05:36 33.61072 -117.65893 28019 ft 428 kts 109°
2026-04-21 05:36 33.60209 -117.62440 28403 ft 431 kts 109°
2026-04-21 05:36 33.59347 -117.58985 28779 ft 435 kts 109°
2026-04-21 05:37 33.58478 -117.55479 29140 ft 438 kts 109°
2026-04-21 05:37 33.57610 -117.51975 29497 ft 441 kts 109°
2026-04-21 05:37 33.56737 -117.48448 29847 ft 445 kts 109°
2026-04-21 05:37 33.55853 -117.44885 30224 ft 447 kts 109°
2026-04-21 05:38 33.54974 -117.41348 30602 ft 449 kts 109°
2026-04-21 05:38 33.54077 -117.37735 30991 ft 451 kts 109°
2026-04-21 05:38 33.53204 -117.34237 31343 ft 453 kts 110°
2026-04-21 05:38 33.52311 -117.30609 31805 ft 453 kts 109°
2026-04-21 05:39 33.51577 -117.27080 32313 ft 452 kts 105°
2026-04-21 05:39 33.50974 -117.23281 32831 ft 451 kts 102°
2026-04-21 05:39 33.50574 -117.19542 33301 ft 451 kts 98°
2026-04-21 05:39 33.50360 -117.15837 33745 ft 451 kts 95°
2026-04-21 05:40 33.50289 -117.12095 34183 ft 451 kts 94°
2026-04-21 05:40 33.50248 -117.08328 34640 ft 449 kts 94°
2026-04-21 05:40 33.50209 -117.04650 35085 ft 448 kts 94°
2026-04-21 05:40 33.50167 -117.00938 35490 ft 447 kts 94°
2026-04-21 05:41 33.50119 -116.97184 35841 ft 447 kts 94°
2026-04-21 05:41 33.50068 -116.93516 36142 ft 448 kts 94°
2026-04-21 05:41 33.50013 -116.89741 36410 ft 449 kts 94°
2026-04-21 05:41 33.49957 -116.86014 36659 ft 450 kts 94°
2026-04-21 05:42 33.49902 -116.82310 36902 ft 451 kts 94°
2026-04-21 05:42 33.49842 -116.78540 37076 ft 453 kts 94°
2026-04-21 05:42 33.49720 -116.71036 37094 ft 453 kts 94°
2026-04-21 05:43 33.49595 -116.63476 37103 ft 453 kts 94°
2026-04-21 05:43 33.49464 -116.55926 37104 ft 453 kts 94°
2026-04-21 05:44 33.49329 -116.48408 37110 ft 452 kts 94°
2026-04-21 05:44 33.49191 -116.40884 37082 ft 452 kts 94°
2026-04-21 05:45 33.49083 -116.33369 37067 ft 452 kts 94°
2026-04-21 05:45 33.48974 -116.25861 37038 ft 452 kts 94°
2026-04-21 05:46 33.48856 -116.18363 37016 ft 451 kts 94°
2026-04-21 05:46 33.48826 -116.10863 36993 ft 452 kts 91°
2026-04-21 05:47 33.49444 -116.03374 36961 ft 455 kts 83°
2026-04-21 05:47 33.50828 -115.95973 36922 ft 457 kts 76°
2026-04-21 05:48 33.52844 -115.88787 36921 ft 458 kts 73°
2026-04-21 05:48 33.54975 -115.81598 36944 ft 458 kts 73°
2026-04-21 05:49 33.57085 -115.74402 36963 ft 458 kts 73°
2026-04-21 05:49 33.59184 -115.67192 36979 ft 458 kts 73°
2026-04-21 05:50 33.61279 -115.59972 36986 ft 458 kts 73°
2026-04-21 05:50 33.63147 -115.52727 36994 ft 456 kts 78°
2026-04-21 05:51 33.64278 -115.45290 36986 ft 453 kts 86°
2026-04-21 05:51 33.64624 -115.37772 36972 ft 451 kts 93°
2026-04-21 05:52 33.64202 -115.30343 36954 ft 447 kts 101°
2026-04-21 05:52 33.63032 -115.23037 36951 ft 445 kts 108°
2026-04-21 05:53 33.61511 -115.15835 36940 ft 447 kts 105°
2026-04-21 05:53 33.60582 -115.08407 36939 ft 451 kts 98°
2026-04-21 05:54 33.60298 -115.00918 36934 ft 452 kts 95°
2026-04-21 05:54 33.60104 -114.93405 36932 ft 452 kts 95°
2026-04-21 05:55 33.59893 -114.85854 36928 ft 451 kts 95°
2026-04-21 05:55 33.59783 -114.82072 36677 ft 454 kts 95°
2026-04-21 05:55 33.59581 -114.78317 35787 ft 459 kts 98°
2026-04-21 05:56 33.59180 -114.74540 34904 ft 459 kts 102°
2026-04-21 05:56 33.58583 -114.70804 34110 ft 458 kts 105°
2026-04-21 05:56 33.57874 -114.67102 33443 ft 457 kts 105°
2026-04-21 05:56 33.57152 -114.63413 32805 ft 455 kts 106°
2026-04-21 05:57 33.56431 -114.59735 32141 ft 455 kts 106°
2026-04-21 05:57 33.55711 -114.56060 31460 ft 454 kts 106°
2026-04-21 05:57 33.54985 -114.52360 30787 ft 453 kts 106°
2026-04-21 05:57 33.54275 -114.48727 30339 ft 447 kts 106°
2026-04-21 05:58 33.53576 -114.45153 29888 ft 441 kts 106°
2026-04-21 05:58 33.52885 -114.41627 29441 ft 435 kts 106°
2026-04-21 05:58 33.52202 -114.38147 28996 ft 429 kts 106°
2026-04-21 05:58 33.51546 -114.34817 28559 ft 424 kts 107°
2026-04-21 05:59 33.50853 -114.31300 28091 ft 419 kts 107°
2026-04-21 05:59 33.50180 -114.27895 27636 ft 414 kts 106°
2026-04-21 05:59 33.49529 -114.24597 27188 ft 410 kts 107°
2026-04-21 06:00 33.48226 -114.18018 26288 ft 401 kts 106°
2026-04-21 06:00 33.47594 -114.14829 25846 ft 397 kts 106°
2026-04-21 06:00 33.46955 -114.11617 25400 ft 393 kts 106°
2026-04-21 06:00 33.46330 -114.08474 24962 ft 389 kts 106°
2026-04-21 06:01 33.45695 -114.05296 24822 ft 395 kts 106°
2026-04-21 06:01 33.45056 -114.02114 24846 ft 398 kts 106°
2026-04-21 06:01 33.44404 -113.98873 24872 ft 400 kts 106°
2026-04-21 06:01 33.43759 -113.95659 24897 ft 400 kts 106°
2026-04-21 06:02 33.43103 -113.92396 24920 ft 400 kts 106°
2026-04-21 06:02 33.42459 -113.89188 24943 ft 401 kts 106°
2026-04-21 06:02 33.41802 -113.85921 24960 ft 401 kts 106°
2026-04-21 06:02 33.41155 -113.82706 24968 ft 401 kts 106°
2026-04-21 06:03 33.40501 -113.79459 24972 ft 401 kts 106°
2026-04-21 06:03 33.39846 -113.76205 24972 ft 401 kts 106°
2026-04-21 06:03 33.39191 -113.72965 24967 ft 402 kts 106°
2026-04-21 06:03 33.38534 -113.69720 24955 ft 402 kts 106°
2026-04-21 06:04 33.37883 -113.66508 24918 ft 401 kts 106°
2026-04-21 06:04 33.37221 -113.63245 24472 ft 402 kts 106°
2026-04-21 06:04 33.36570 -113.60036 23946 ft 399 kts 106°
2026-04-21 06:04 33.35922 -113.56846 23468 ft 395 kts 106°
2026-04-21 06:05 33.35279 -113.53687 23008 ft 391 kts 106°
2026-04-21 06:05 33.34636 -113.50542 22550 ft 387 kts 105°
2026-04-21 06:05 33.33997 -113.47414 22105 ft 383 kts 105°
2026-04-21 06:05 33.33416 -113.44301 21763 ft 381 kts 104°
2026-04-21 06:06 33.32881 -113.41210 21777 ft 384 kts 104°
2026-04-21 06:06 33.32345 -113.38093 21797 ft 385 kts 103°
2026-04-21 06:06 33.31800 -113.34932 21814 ft 386 kts 104°
2026-04-21 06:06 33.31260 -113.31799 21825 ft 386 kts 104°
2026-04-21 06:07 33.30721 -113.28691 21791 ft 386 kts 104°
2026-04-21 06:07 33.30177 -113.25558 21337 ft 385 kts 104°
2026-04-21 06:07 33.29650 -113.22402 20869 ft 382 kts 102°
2026-04-21 06:07 33.29201 -113.19319 20420 ft 380 kts 102°
2026-04-21 06:08 33.28757 -113.16209 19971 ft 377 kts 102°
2026-04-21 06:08 33.28323 -113.13165 19532 ft 374 kts 102°
2026-04-21 06:08 33.27887 -113.10105 19097 ft 371 kts 101°
2026-04-21 06:08 33.27590 -113.07087 18915 ft 361 kts 96°
2026-04-21 06:09 33.27506 -113.04157 18896 ft 359 kts 91°
2026-04-21 06:09 33.27563 -113.01144 18917 ft 361 kts 90°
2026-04-21 06:09 33.27644 -112.98167 18857 ft 362 kts 90°
2026-04-21 06:09 33.27728 -112.95157 18387 ft 362 kts 90°
2026-04-21 06:10 33.27808 -112.92163 17939 ft 359 kts 90°
2026-04-21 06:10 33.27882 -112.89222 17514 ft 357 kts 90°
2026-04-21 06:10 33.27956 -112.86266 17149 ft 352 kts 90°
2026-04-21 06:10 33.28030 -112.83376 17003 ft 341 kts 90°
2026-04-21 06:11 33.28199 -112.80640 16942 ft 331 kts 86°
2026-04-21 06:11 33.28453 -112.77885 16967 ft 332 kts 85°
2026-04-21 06:11 33.28713 -112.75146 16991 ft 332 kts 85°
2026-04-21 06:11 33.28973 -112.72417 16986 ft 332 kts 85°
2026-04-21 06:12 33.29235 -112.69659 16618 ft 333 kts 85°
2026-04-21 06:12 33.29493 -112.66937 16214 ft 332 kts 86°
2026-04-21 06:12 33.29752 -112.64176 15831 ft 329 kts 86°
2026-04-21 06:12 33.30003 -112.61494 15464 ft 327 kts 86°
2026-04-21 06:13 33.30254 -112.58801 15078 ft 325 kts 86°
2026-04-21 06:13 33.30503 -112.56127 14713 ft 322 kts 86°
2026-04-21 06:13 33.30748 -112.53478 14351 ft 320 kts 86°
2026-04-21 06:13 33.30989 -112.50849 13992 ft 318 kts 86°
2026-04-21 06:14 33.31229 -112.48250 13638 ft 315 kts 86°
2026-04-21 06:14 33.31468 -112.45645 13274 ft 313 kts 86°
2026-04-21 06:14 33.31704 -112.43076 12915 ft 311 kts 86°
2026-04-21 06:14 33.31937 -112.40529 12574 ft 308 kts 86°
2026-04-21 06:15 33.32166 -112.38008 12233 ft 305 kts 86°
2026-04-21 06:15 33.32396 -112.35496 11890 ft 303 kts 86°
2026-04-21 06:15 33.32624 -112.33003 11534 ft 301 kts 87°
2026-04-21 06:15 33.32849 -112.30558 11186 ft 298 kts 87°
2026-04-21 06:16 33.33074 -112.28080 10834 ft 296 kts 87°
2026-04-21 06:16 33.33294 -112.25665 10494 ft 293 kts 87°
2026-04-21 06:16 33.33512 -112.23263 10147 ft 291 kts 87°
2026-04-21 06:16 33.33727 -112.20882 9799 ft 289 kts 87°
2026-04-21 06:17 33.33943 -112.18506 9464 ft 285 kts 87°
2026-04-21 06:17 33.34150 -112.16196 9330 ft 274 kts 87°
2026-04-21 06:17 33.34351 -112.13959 9231 ft 263 kts 87°
2026-04-21 06:17 33.34541 -112.11856 9142 ft 251 kts 86°
2026-04-21 06:18 33.34716 -112.09803 9052 ft 240 kts 89°
2026-04-21 06:18 33.34759 -112.07873 8996 ft 231 kts 93°
2026-04-21 06:18 33.34736 -112.05935 8737 ft 233 kts 94°
2026-04-21 06:18 33.34707 -112.03994 8457 ft 233 kts 93°
2026-04-21 06:19 33.34680 -112.02083 8189 ft 232 kts 93°
2026-04-21 06:19 33.34654 -112.00153 7916 ft 231 kts 93°
2026-04-21 06:19 33.34628 -111.98223 7646 ft 230 kts 92°
2026-04-21 06:19 33.34602 -111.96334 7379 ft 229 kts 92°
2026-04-21 06:20 33.34576 -111.94437 7115 ft 227 kts 92°
2026-04-21 06:20 33.34575 -111.92548 6923 ft 222 kts 90°
2026-04-21 06:20 33.34603 -111.90726 6711 ft 218 kts 88°
2026-04-21 06:20 33.34643 -111.88924 6497 ft 215 kts 88°
2026-04-21 06:21 33.34684 -111.87163 6288 ft 211 kts 88°
2026-04-21 06:21 33.34723 -111.85424 6082 ft 207 kts 87°
2026-04-21 06:21 33.34760 -111.83717 5877 ft 204 kts 87°
2026-04-21 06:21 33.34797 -111.82037 5654 ft 202 kts 88°
2026-04-21 06:22 33.34835 -111.80353 5391 ft 202 kts 89°
2026-04-21 06:22 33.34870 -111.78680 5143 ft 201 kts 89°
2026-04-21 06:22 33.34903 -111.77003 4902 ft 200 kts 89°
2026-04-21 06:22 33.35106 -111.75385 4627 ft 202 kts 62°
2026-04-21 06:23 33.36129 -111.74309 4436 ft 200 kts 13°
2026-04-21 06:23 33.37510 -111.74344 4410 ft 200 kts 337°
2026-04-21 06:23 33.38649 -111.75236 4393 ft 197 kts 314°
2026-04-21 06:23 33.39600 -111.76363 4452 ft 181 kts 314°
2026-04-21 06:24 33.40456 -111.77354 4370 ft 162 kts 314°
2026-04-21 06:24 33.41230 -111.78223 4292 ft 142 kts 315°
2026-04-21 06:24 33.41942 -111.79006 4272 ft 139 kts 315°
2026-04-21 06:24 33.42662 -111.79789 4222 ft 139 kts 316°
2026-04-21 06:25 33.43378 -111.80561 4147 ft 139 kts 316°
2026-04-21 06:25 33.43877 -111.81510 4019 ft 136 kts 282°
2026-04-21 06:25 33.44008 -111.82638 3921 ft 137 kts 273°
2026-04-21 06:25 33.44056 -111.83772 3672 ft 136 kts 270°
2026-04-21 06:26 33.44077 -111.84894 3436 ft 134 kts 269°
2026-04-21 06:26 33.44086 -111.86018 3217 ft 134 kts 269°
2026-04-21 06:26 33.44087 -111.87125 3006 ft 133 kts 269°
2026-04-21 06:26 33.44087 -111.88222 2842 ft 131 kts 269°
2026-04-21 06:27 33.44085 -111.89307 2677 ft 131 kts 269°
2026-04-21 06:27 33.44083 -111.90399 2511 ft 130 kts 269°
2026-04-21 06:27 33.44082 -111.91468 2353 ft 129 kts 269°
2026-04-21 06:27 33.44081 -111.92540 2188 ft 128 kts 270°
2026-04-21 06:28 33.44081 -111.93605 2024 ft 128 kts 269°
2026-04-21 06:28 33.44080 -111.94676 1863 ft 127 kts 270°
2026-04-21 06:28 33.44081 -111.95719 1703 ft 126 kts 270°
2026-04-21 06:28 33.44081 -111.96766 1544 ft 125 kts 270°
2026-04-21 06:29 33.44077 -111.97818 1387 ft 125 kts 269°
2026-04-21 06:29 33.44077 -111.98844 1238 ft 124 kts 269°
2026-04-21 06:29 33.44071 -111.99882 1143 ft 121 kts 268°
2026-04-21 06:29 33.44073 -112.00590 1143 ft 42 kts 272°
2026-04-21 06:30 33.44034 -112.00726 1143 ft 4 kts 210°
2026-04-21 06:30 33.43990 -112.00742 1143 ft 7 kts 190°
2026-04-21 06:30 33.43908 -112.00736 1143 ft 15 kts 142°
2026-04-21 06:30 33.43889 -112.00590 1143 ft 21 kts 81°
2026-04-21 06:31 33.43901 -112.00393 1143 ft 26 kts 86°
2026-04-21 06:31 33.43900 -112.00156 1143 ft 30 kts 91°
2026-04-21 06:31 33.43905 -111.99915 1143 ft 23 kts 91°
2026-04-21 06:31 33.43835 -111.99826 1143 ft 13 kts 175°
2026-04-21 06:32 33.43768 -111.99824 1143 ft 7 kts 180°
2026-04-21 06:32 33.43756 -111.99843 1143 ft 4 kts 263°
2026-04-21 06:32 33.43755 -111.99875 1142 ft 0 kts 271°